Location: Eichelsdorf
(50.1604°N, 10.5310°E)
Time: 05:13:38
(UTC+00:00)

Daily predictions for brighter satellites

Satellite Brightness Start Highest point End
(mag) Time Altitude Azimuth Time Altitude Azimuth Time Altitude Azimuth
Cosmos 1726 Rocket 4.3 00:07:11 47° ENE 00:07:11 47° ENE 00:10:37 10° NNE
ATLAS 2AS CENTAUR R/B 3.0 00:09:46 37° WSW 00:12:29 61° NW 00:19:15 10° NE
Cosmos 1536 4.5 00:09:25 10° NNE 00:12:16 26° ENE 00:12:16 26° ENE
IDEFIX/ARIANE 42P 3.9 00:11:18 10° NE 00:15:46 28° E 00:16:41 27° ESE
Meteor 1-5 Rocket 4.1 00:15:36 10° NNW 00:20:57 66° W 00:20:59 66° W
Cosmos 1953 Rocket 3.8 00:18:13 10° N 00:22:18 68° NE 00:22:18 68° NE
Cosmos 1980 Rocket 2.7 00:19:33 10° NW 00:24:20 44° W 00:24:20 44° W
USA 234 3.9 00:20:12 10° E 00:26:32 55° NNE 00:32:53 10° WNW
Cosmos 44 Rocket 3.8 00:29:47 49° ESE 00:29:47 49° ESE 00:34:35 10° NE
Cosmos 1825 Rocket 4.3 00:29:09 10° NNW 00:32:19 42° NW 00:32:19 42° NW
COSMOS 2406 3.9 00:32:29 40° SE 00:33:20 43° ESE 00:38:44 10° NE
Meteor 2-10 4.2 00:30:30 10° NNW 00:35:53 58° W 00:36:02 58° WSW
Cosmos 2369 3.6 00:30:42 10° NNW 00:36:21 68° WSW 00:36:37 67° SW
Cosmos 1634 Rocket 4.0 00:35:56 52° SSE 00:37:24 72° E 00:43:34 10° NNE
Cosmos 724 4.3 00:44:49 59° S 00:45:52 71° SE 00:51:48 10° NE
Cosmos 2084 3.8 00:46:23 57° NNW 00:46:23 57° NNW 00:50:18 10° NE
Spot 1 4.0 00:43:16 10° NNE 00:47:07 77° N 00:47:07 77° N
Cosmos 1607 4.0 00:47:22 52° S 00:48:34 62° ESE 00:54:43 10° NE
Cosmos-2242 2.9 00:52:12 79° NNE 00:52:12 79° NNE 00:56:11 10° N
Cosmos 2360 Rocket 3.2 00:46:39 10° NNW 00:52:05 44° NE 00:57:30 10° SE
Cosmos 2333 Rocket 2.4 00:47:34 10° NNW 00:53:15 68° ENE 00:57:05 21° SE
FENGYUN 3A 4.4 00:49:46 10° NNE 00:54:59 45° E 00:56:43 34° SE
USA 281 3.2 00:51:27 28° SSE 00:55:16 87° ENE 01:01:54 10° NNW
Cosmos 2082 Rocket 2.3 00:59:24 52° WSW 01:00:40 69° WNW 01:06:25 10° NNE
Cosmos 1842 4.2 01:02:43 34° ENE 01:02:43 34° ENE 01:05:07 10° NNE
Meteor 2-2 Rocket 4.1 01:02:52 55° S 01:04:12 89° E 01:09:52 10° NNE
Cosmos 2279 Rocket 4.0 01:03:59 45° S 01:06:06 82° E 01:12:22 10° N
Cosmos 2278 3.8 01:01:18 10° NNW 01:07:03 77° ENE 01:11:11 19° SE
Cosmos 2322 Rocket 2.7 01:01:55 10° NNW 01:07:30 59° NE 01:13:04 10° SE
Cosmos 1486 Rocket 3.9 01:02:34 10° NNW 01:07:49 88° ENE 01:09:36 43° SSE
NPP 4.0 01:02:51 10° NNE 01:08:12 59° ESE 01:09:56 40° SSE
Cosmos 2221 3.4 01:07:40 35° ESE 01:08:29 39° E 01:12:21 10° NNE
Resurs 1-4 Rocket 3.9 01:04:31 10° NE 01:08:48 24° E 01:12:17 13° SE
NOSS 3-3 (A) 3.8 01:14:12 48° S 01:15:28 62° SE 01:21:36 10° NE
ACS3 Solar Sail 2.0 01:10:49 10° N 01:16:42 57° WNW 01:18:33 41° WSW
Cosmos 1777 Rocket 3.9 01:13:09 10° NNW 01:18:27 87° WSW 01:20:41 36° SSE
Cosmos 2219 Rocket 3.2 01:15:59 10° NNW 01:21:25 46° NE 01:26:50 10° SE
SL-16 R/B 2.1 01:16:55 10° NNW 01:22:35 70° WSW 01:24:53 36° S
CZ-4C R/B 2.2 01:22:06 43° W 01:23:20 57° NW 01:28:57 10° NE
H-2A R/B 4.0 01:19:27 10° NE 01:23:27 22° E 01:27:29 10° SE
GP-B 3.9 01:19:30 10° NNW 01:23:25 35° WNW 01:23:25 35° WNW
Meteor 1-11 Rocket 4.4 01:17:54 10° N 01:23:44 56° ENE 01:29:13 11° SSE
Cosmos 2180 Rocket 4.5 01:22:10 36° S 01:24:52 80° E 01:31:05 10° NNE
Cosmos 1271 Rocket 3.1 01:27:38 45° ESE 01:27:55 47° E 01:31:17 10° NNE
Meteor 1-14 Rocket 4.2 01:23:55 10° NNW 01:29:43 88° WSW 01:32:37 30° S
ATLAS 3B R/B 4.0 01:24:13 10° WNW 01:29:24 23° WSW 01:29:24 23° WSW
SL-4 R/B 2.5 01:31:34 41° SE 01:31:34 41° SE 01:34:12 10° ESE
USA 267 3.8 01:25:01 10° ENE 01:31:17 46° SE 01:34:01 31° S
NOSS 3-3 (C) 3.8 01:30:27 43° SSW 01:32:13 68° SE 01:38:28 10° NE
Cosmos 2058 Rocket 3.5 01:32:04 43° W 01:32:29 44° WNW 01:36:44 10° N
Cosmos 2266 Rocket 3.9 01:29:07 10° N 01:35:17 89° E 01:39:09 24° S
Cosmos 1470 2.5 01:33:21 10° NNW 01:36:16 62° NW 01:36:16 62° NW
Gbstr 26 Del rocket 2.5 01:37:23 68° SSE 01:37:23 68° SSE 01:40:49 10° ESE
KORONAS-FOTON 4.1 01:38:28 44° NW 01:38:28 44° NW 01:41:19 10° N
USA 290 4.0 01:37:48 23° ESE 01:38:17 24° ESE 01:40:54 10° NE
Cosmos 909 Rocket 4.5 01:37:58 28° WSW 01:41:07 53° NW 01:47:28 10° NE
Cosmos 1536 4.2 01:44:40 10° NNW 01:46:48 23° WNW 01:46:48 23° WNW
Cosmos 2333 4.2 01:42:22 10° NNW 01:48:05 86° ENE 01:53:48 10° SSE
DMSP B5D2-2 4.0 01:45:23 16° SSE 01:49:31 84° ENE 01:54:44 10° NNW
Cosmos 1655 Rocket 4.4 01:44:11 10° N 01:50:22 62° ENE 01:56:31 10° SSE
Cosmos 1812 Rocket 3.5 01:49:34 40° S 01:51:06 84° E 01:55:28 10° NNE
Meteor 2-6 Rocket 4.4 01:49:06 35° SW 01:51:29 62° WNW 01:57:21 10° N
NOSS 3-4 (A) 3.9 01:46:17 10° NW 01:52:52 78° NE 02:00:41 10° SE
NOSS 3-4 (C) 3.9 01:46:49 10° NW 01:53:25 77° NE 02:01:15 10° SE
IDEFIX/ARIANE 42P 3.0 01:50:27 10° N 01:55:25 48° WNW 01:57:22 32° WSW
ISS -1.1 01:56:14 11° SE 01:56:32 11° SE 01:57:30 10° ESE
COSMOS 2441 4.2 01:52:45 10° NNE 01:57:34 85° WNW 01:59:44 33° SSW
Envisat 3.3 01:53:05 10° NNE 01:58:09 65° ESE 02:01:23 22° S
Meteor 2-20 4.4 01:54:40 24° S 01:58:36 85° E 02:04:47 10° N
Aureole 1 Rocket 3.4 01:55:23 10° NNW 01:59:26 67° ENE 02:04:32 10° SSE
Cosmos 1707 4.4 02:03:05 14° NW 02:03:05 14° NW 02:04:06 10° NNW
Cosmos 2084 Rocket 3.2 01:59:00 10° NW 02:03:12 73° SW 02:07:26 10° SE
ATLAS 2AS CENTAUR R/B 4.3 01:58:50 10° WNW 02:04:42 29° NNW 02:10:32 10° NE
SWARM C 4.4 02:02:09 10° N 02:05:25 86° E 02:06:24 42° S
SWARM A 4.3 02:02:14 10° N 02:05:29 72° E 02:06:47 33° SSE
Iridium 4 Rocket 3.3 02:03:00 26° S 02:05:41 88° W 02:10:50 10° N
MOZ.5/SAFIR/RUBIN 5/SL-8 3.9 02:05:32 31° SSW 02:07:28 51° W 02:12:02 10° NNW
Meteor 1-27 Rocket 4.1 02:03:31 16° S 02:08:20 66° E 02:14:13 10° NNE
H-2A R/B 2.0 02:06:26 22° SSE 02:08:39 89° ENE 02:12:15 10° NNW
USA 234 3.2 02:02:48 10° ESE 02:09:21 85° SSW 02:15:57 10° WNW
Cosmos 1975 3.1 02:06:59 10° NNW 02:10:22 37° W 02:10:36 36° WSW
Cosmos 990 Rocket 3.9 02:06:02 10° NNW 02:11:06 60° WSW 02:15:53 11° S
Cosmos 44 Rocket 4.4 02:08:21 21° W 02:11:11 39° NW 02:16:04 10° NNE
ADEOS II 2.8 02:06:33 10° NNE 02:11:41 51° E 02:16:28 11° S
Cosmos 1763 Rocket 3.5 02:13:17 28° SSW 02:16:08 76° WNW 02:21:29 10° NNE
ALOS 2.4 02:11:43 10° NNE 02:16:16 71° ESE 02:19:31 19° S
Cosmos 1238 Rocket 2.6 02:15:06 29° SSE 02:16:17 54° E 02:19:14 10° NNE
COSMOS 2406 4.0 02:14:30 23° WSW 02:17:40 41° NW 02:23:07 10° NNE
CZ-2D R/B 2.2 02:15:01 10° NNE 02:20:18 79° ESE 02:24:32 16° S
COSMOS 2428 3.9 02:14:56 10° NNW 02:20:26 46° NE 02:25:54 10° SE
SL-16 R/B 3.6 02:15:21 10° SE 02:21:19 49° ENE 02:27:19 10° N
ADEOS Rocket 3.7 02:15:48 10° N 02:23:10 60° WNW 02:28:49 19° SW
Sich 1 4.4 02:21:17 10° N 02:25:12 37° ENE 02:29:03 10° SE
Spot 2 4.3 02:23:39 10° S 02:28:26 71° WSW 02:33:25 10° NNW
Cosmos 1898 Rocket 3.7 02:24:03 10° NNW 02:29:14 71° ENE 02:34:23 10° SSE
Cosmos 1354 Rocket 4.4 02:28:36 10° NW 02:33:31 40° WSW 02:38:18 10° S
Cosmos 1937 Rocket 4.1 02:28:36 10° NNW 02:33:46 59° ENE 02:38:51 10° SE
Cosmos 2360 Rocket 2.7 02:30:49 10° NW 02:36:01 38° WSW 02:41:11 10° S
Cosmos 2333 Rocket 3.3 02:32:39 10° NW 02:37:02 23° WSW 02:39:00 20° SW
SL-19 R/B 4.4 02:31:51 10° NNE 02:37:33 83° ESE 02:43:25 11° SSW
Alouette 2 Rocket 3.2 02:33:46 10° NNW 02:37:53 64° W 02:41:25 10° S
USA 305 3.1 02:38:24 14° NW 02:39:09 17° NNW 02:40:12 10° NE
EP 1 4.2 02:37:33 10° NW 02:40:07 61° SW 02:42:53 10° SSE
USA 281 4.3 02:38:17 18° SW 02:40:31 22° W 02:45:26 10° NW
Meteor 2-10 Rocket 3.7 02:38:20 10° N 02:43:27 76° ENE 02:48:43 10° SSE
Cosmos 540 Rocket 3.8 02:41:18 20° SW 02:44:44 51° WNW 02:49:46 10° NNE
H-2A R/B 3.6 02:41:30 10° NNE 02:45:07 32° E 02:48:41 10° SSE
Cosmos 2221 3.8 02:43:58 18° WSW 02:45:39 23° WNW 02:48:59 10° NNW
Cosmos 2082 Rocket 4.1 02:41:48 10° W 02:45:50 19° NW 02:49:53 10° N
Cosmos 1553 Rocket 4.3 02:41:41 10° S 02:47:49 71° E 02:54:07 10° NNE
Resurs 1-4 Rocket 2.3 02:43:42 10° N 02:48:55 58° WNW 02:53:19 14° SW
USA 276 3.0 02:50:08 14° SSE 02:50:08 14° SSE 02:50:33 10° SE
Cosmos 468 Rocket 4.0 02:46:38 16° SSW 02:50:57 75° WNW 02:56:17 10° NNE
Cosmos 2322 Rocket 3.1 02:46:29 10° NW 02:51:10 27° WSW 02:55:51 10° SSW
BREEZE-M DEB (TANK) 3.2 02:50:12 14° W 02:52:45 69° S 03:01:24 10° ESE
DNEPR-1 R/B 4.5 02:49:22 10° NW 02:54:34 49° WSW 03:00:50 10° SSE
CZ-2C R/B 4.3 02:52:10 10° NE 02:56:21 28° E 03:00:25 10° SSE
Cosmos 1766 Rocket 3.9 02:52:51 10° NNW 02:56:58 43° W 03:01:02 10° SSW
ACS3 Solar Sail 3.7 02:55:18 10° NNW 02:57:54 13° NW 03:00:31 10° WNW
Cosmos 1833 4.4 02:53:59 15° SW 02:58:41 63° WNW 03:04:21 10° NNE
Cosmos 1271 Rocket 4.5 03:01:02 12° W 03:02:26 15° WNW 03:04:27 10° NNW
H-2A R/B 2.2 02:58:03 10° N 03:03:06 61° WNW 03:08:16 10° SSW
CRYOSAT 2 4.4 02:59:23 10° S 03:04:11 58° W 03:09:02 10° NNW
Cosmos 2219 Rocket 2.7 03:00:09 10° NW 03:05:15 36° WSW 03:10:21 10° S
Cosmos 2237 Rocket 3.6 03:00:00 10° NNW 03:05:27 44° NE 03:10:53 10° SE
SL-16 R/B 3.9 03:03:30 10° WNW 03:05:36 12° W 03:06:38 12° WSW
RESURS DK-1 4.1 03:02:55 10° NNW 03:06:36 35° NE 03:10:16 10° ESE
Cosmos 44 4.5 03:01:25 10° NW 03:06:44 53° NE 03:11:57 10° ESE
SL-4 R/B 3.2 03:05:08 13° W 03:07:18 19° SW 03:10:01 10° S
SL-14 R/B 3.6 03:05:24 10° S 03:09:14 66° E 03:13:07 10° NNE
USA 290 3.6 03:10:18 13° WSW 03:12:21 24° NW 03:15:01 10° N
CZ-4C R/B 4.0 03:08:36 10° WNW 03:12:49 25° N 03:18:00 10° NE
ARGOS 3.3 03:08:43 10° NNE 03:14:08 83° ESE 03:19:31 10° SSW
USA 267 3.4 03:08:01 10° ENE 03:14:35 77° NNW 03:21:08 10° WSW
Cosmos 1408 Rocket 3.8 03:10:53 10° N 03:15:12 74° ENE 03:19:28 10° SSE
Cosmos 1745 Rocket 4.2 03:09:42 10° N 03:15:54 76° E 03:22:02 10° SSE
METEOR-M 4.2 03:11:25 10° N 03:16:43 67° WNW 03:21:59 10° SSW
Gbstr 26 Del rocket 4.1 03:20:13 10° W 03:22:48 18° SW 03:25:24 10° S
Cosmos 2322 3.7 03:20:07 10° NW 03:25:46 63° WSW 03:31:22 10° SSE
NOSS 3 (A) 4.1 03:29:16 10° NW 03:31:33 61° SW 03:34:30 10° SSE
ISS -3.1 03:29:27 10° SW 03:32:42 48° SSE 03:35:59 10° ENE
UNK 4.3 03:30:07 10° SSE 03:34:40 65° ENE 03:39:13 10° N
Envisat 4.4 03:32:47 10° N 03:36:39 22° WNW 03:40:31 10° WSW
BREEZE-M DEB (TANK) 2.6 03:32:24 10° WSW 03:38:06 50° SSE 03:40:42 10° E
Meteor 2-4 Rocket 4.4 03:35:26 10° SW 03:40:18 34° WNW 03:45:11 10° N
